This demonstration page uses our WeatherBlox Daily Observations layout. Learn more.

Left ArrowRight Arrow

Hourly Observations for March 23, 2016

Temp ( °F °C ) Dew Point ( °F °C ) Humidity (%) Winds ( mph kmh ) Pressure ( in mb ) Visibility ( mi km ) Precip ( " mm )
12:15 am 00:15 Clear 48 9 36 2 62 62 ENE 17 28 29.47 998 10 16 0.00 0.00
12:35 am 00:35 Clear 50 10 36 2 58 58 E 15 24 29.47 998 10 16 0.00 0.00
12:55 am 00:55 Clear 50 10 36 2 58 58 ENE 22 35 29.44 997 10 16 0.00 0.00
1:15 am 01:15 Clear 50 10 36 2 58 58 NE 18 30 29.38 995 10 16 0.00 0.00
1:35 am 01:35 Clear 48 9 36 2 62 62 NNE 16 26 29.44 997 10 16 0.00 0.00
1:55 am 01:55 Clear 46 8 36 2 66 66 NE 15 24 29.44 997 10 16 0.00 0.00
2:15 am 02:15 Clear 46 8 36 2 66 66 NNE 16 26 29.44 997 10 16 0.00 0.00
2:35 am 02:35 Clear 46 8 36 2 66 66 NE 20 31 29.44 997 10 16 0.00 0.00
2:55 am 02:55 Clear 48 9 36 2 62 62 NE 18 30 29.44 997 10 16 0.00 0.00
3:15 am 03:15 Clear 46 8 36 2 66 66 NNE 15 24 29.44 997 10 16 0.00 0.00
3:35 am 03:35 Clear 46 8 37 3 71 71 NNE 18 30 29.41 996 10 16 0.00 0.00
3:55 am 03:55 Clear 45 7 36 2 71 71 NNE 17 28 29.41 996 10 16 0.00 0.00
4:15 am 04:15 Clear 45 7 37 3 76 76 NNE 21 33 29.41 996 10 16 0.00 0.00
4:35 am 04:35 Clear 45 7 37 3 76 76 NNE 22 35 29.41 996 10 16 0.00 0.00
4:55 am 04:55 Clear 45 7 37 3 76 76 NNE 22 35 29.41 996 10 16 0.00 0.00
5:15 am 05:15 Clear 45 7 37 3 76 76 NNE 21 33 29.41 996 10 16 0.00 0.00
5:35 am 05:35 Clear 45 7 37 3 76 76 NNE 23 37 29.44 997 10 16 0.00 0.00
5:55 am 05:55 Clear 45 7 37 3 76 76 NNE 22 35 29.41 996 10 16 0.00 0.00
6:15 am 06:15 Clear 43 6 37 3 81 81 NNE 26 43 29.47 998 10 16 0.00 0.00
6:35 am 06:35 Clear 43 6 36 2 76 76 NNE 24 39 29.47 998 10 16 0.00 0.00
6:55 am 06:55 Clear 43 6 36 2 76 76 NNE 26 43 29.47 998 10 16 0.00 0.00
7:15 am 07:15 Mostly Clear 41 5 36 2 81 81 NNE 23 37 29.47 998 10 16 0.00 0.00
7:35 am 07:35 Mostly Cloudy 39 4 34 1 81 81 NNE 25 41 29.47 998 10 16 0.00 0.00
7:55 am 07:55 Cloudy 39 4 34 1 81 81 NNE 25 41 29.50 999 10 16 0.00 0.00
8:15 am 08:15 Cloudy 41 5 34 1 76 76 NNE 22 35 29.50 999 10 16 0.00 0.00
8:35 am 08:35 Cloudy 39 4 34 1 81 81 NNE 30 48 29.50 999 10 16 0.00 0.00
8:55 am 08:55 Cloudy 39 4 34 1 81 81 NNE 30 48 29.50 999 10 16 0.00 0.00
9:15 am 09:15 Cloudy 39 4 34 1 81 81 NNE 31 50 29.50 999 10 16 0.00 0.00
9:35 am 09:35 Cloudy 39 4 32 0 75 75 NNE 29 46 29.50 999 10 16 0.00 0.00
9:55 am 09:55 Cloudy 39 4 34 1 81 81 NNE 32 52 29.50 999 10 16 0.00 0.00
10:15 am 10:15 Cloudy 39 4 32 0 75 75 NE 29 46 29.50 999 10 16 0.00 0.00
10:35 am 10:35 Cloudy 39 4 34 1 81 81 NNE 28 44 29.50 999 9 14 0.00 0.00
10:55 am 10:55 Cloudy 39 4 32 0 75 75 NNE 32 52 29.50 999 9 14 0.00 0.00
11:15 am 11:15 Cloudy 39 4 32 0 75 75 NE 31 50 29.50 999 8 13 0.00 0.00
11:35 am 11:35 Cloudy 39 4 32 0 75 75 NE 33 54 29.53 1000 7 11 0.00 0.00
11:55 am 11:55 Cloudy 39 4 32 0 75 75 NNE 29 46 29.53 1000 6 10 0.00 0.00
12:15 pm 12:15 Cloudy 39 4 34 1 81 81 NNE 36 57 29.50 999 5 8 0.00 0.00
12:35 pm 12:35 Cloudy 39 4 34 1 81 81 NNE 33 54 29.50 999 3 5 0.00 0.00
12:55 pm 12:55 Cloudy 37 3 34 1 87 87 NNE 32 52 29.53 1000 3 5 0.00 0.00
1:15 pm 13:15 Cloudy 37 3 34 1 87 87 NNE 38 61 29.56 1001 3 4 0.00 0.00
1:35 pm 13:35 Cloudy 37 3 34 1 87 87 NNE 36 57 29.56 1001 3 5 0.00 0.00
1:55 pm 13:55 Cloudy 37 3 34 1 87 87 NNE 32 52 29.56 1001 3 5 0.00 0.00
2:15 pm 14:15 Cloudy 36 2 34 1 93 93 NNE 30 48 29.56 1001 5 8 0.00 0.00
2:35 pm 14:35 Cloudy 36 2 34 1 93 93 NE 26 43 29.56 1001 3 5 0.00 0.00
2:55 pm 14:55 Cloudy 36 2 34 1 93 93 NE 29 46 29.56 1001 4 6 0.00 0.00
3:15 pm 15:15 Cloudy 37 3 34 1 87 87 NNE 30 48 29.56 1001 4 6 0.00 0.00
3:35 pm 15:35 Cloudy 37 3 34 1 87 87 NNE 35 56 29.56 1001 3 5 0.00 0.00
3:55 pm 15:55 Cloudy 37 3 34 1 87 87 NNE 31 50 29.56 1001 5 8 0.00 0.00
4:15 pm 16:15 Cloudy 37 3 34 1 87 87 NNE 36 57 29.56 1001 5 8 0.00 0.00
4:35 pm 16:35 Cloudy 37 3 34 1 87 87 NNE 32 52 29.59 1002 5 8 0.00 0.00
4:55 pm 16:55 Cloudy 36 2 34 1 93 93 NNE 28 44 29.59 1002 2 3 0.00 0.00
5:15 pm 17:15 Cloudy 36 2 32 0 87 87 N 28 44 29.65 1004 7 11 0.00 0.00
5:35 pm 17:35 Cloudy 36 2 30 -1 81 81 N 25 41 29.68 1005 10 16 0.00 0.00
5:55 pm 17:55 Cloudy 36 2 30 -1 81 81 N 24 39 29.71 1006 10 16 0.00 0.00
6:15 pm 18:15 Cloudy 34 1 28 -2 81 81 N 32 52 29.71 1006 3 5 0.00 0.00
6:35 pm 18:35 Cloudy 34 1 28 -2 81 81 NNE 33 54 29.71 1006 2 2 0.01 0.25
6:55 pm 18:55 Cloudy 34 1 28 -2 81 81 NNE 25 41 29.77 1008 1 2 0.01 0.25
7:15 pm 19:15 Cloudy 32 0 28 -2 87 87 NNE 22 35 29.77 1008 1 2 0.00 0.00
7:35 pm 19:35 Cloudy with Nearby Thunderstorms 32 0 28 -2 87 87 N 22 35 29.80 1009 1 2 0.01 0.25
7:55 pm 19:55 Cloudy with Nearby Thunderstorms 30 -1 28 -2 93 93 N 17 28 29.83 1010 1 1 0.02 0.51
8:15 pm 20:15 Cloudy 30 -1 28 -2 93 93 N 21 33 29.83 1010 1 1 0.00 0.00
8:35 pm 20:35 Cloudy 30 -1 27 -3 86 86 N 25 41 29.83 1010 1 2 0.00 0.00
8:55 pm 20:55 Cloudy 30 -1 27 -3 86 86 N 29 46 29.83 1010 1 1 0.00 0.00
9:15 pm 21:15 Cloudy 30 -1 27 -3 86 86 N 28 44 29.83 1010 1 1 0.00 0.00
9:35 pm 21:35 Cloudy 30 -1 27 -3 86 86 N 32 52 29.83 1010 1 2 0.00 0.00
9:55 pm 21:55 Cloudy 30 -1 27 -3 86 86 N 28 44 29.83 1010 1 1 0.00 0.00
10:15 pm 22:15 Cloudy 30 -1 27 -3 86 86 N 26 43 29.88 1012 1 1 0.00 0.00
10:35 pm 22:35 Cloudy 30 -1 27 -3 86 86 N 33 54 29.88 1012 1 1 0.00 0.00
10:55 pm 22:55 Cloudy 30 -1 27 -3 86 86 N 32 52 29.88 1012 1 1 0.00 0.00
11:15 pm 23:15 Cloudy 30 -1 27 -3 86 86 N 32 52 29.91 1013 1 1 0.00 0.00
11:35 pm 23:35 Cloudy 30 -1 27 -3 86 86 N 31 50 29.91 1013 1 1 0.00 0.00
11:55 pm 23:55 Cloudy 30 -1 27 -3 86 86 N 36 57 29.91 1013 1 1 0.00 0.00

Powered by AerisWeather